Location: ČR
(50.0000°N, 15.0000°E)
Time: 11:10:14
(UTC+02:00)

A-11 Canister half - Pass Details

Date: 16 March 2026
Orbit: 1514 x 1685 km, 47.2° (Epoch: 16 April)

Event Time Altitude Azimuth Distance (km) Brightness Sun altitude
Rises 17:41:44 0° 276° (W) 4,907 13.8 3.1°
Reaches altitude 10° 17:44:52 10° 274° (W) 3,932 13.3 2.6°
Maximum altitude 17:54:57 72° 194° (SSW) 1,758 9.5 1.0°
Drops below altitude 10° 18:05:01 10° 112° (ESE) 3,930 10.6 -0.6°
Sets 18:08:10 0° 111° (ESE) 4,904 11.0 -1.1°
